STARLINK-34932 (65179 NORAD) Tracking and Keplerian Element Data

This shows tracking and keplerian element data for the satellite.

Feedback or suggestion? Click here.




ElementValue
Catalog65179
NameSTARLINK-34932
Epoch Orbit2067
Epoch Day354.17636374
Epoch Year2025
RAAN224.2492
Inclination97.6038
Eccentricity0.0003012
Argument of Perigee74.1444
Mean Anonmoly286.0115
Mean Motion15.05644554
Decay Rate-6.9E-07
L11 65179U 25175F 25354.17636374 -.00000069 00000+0 -57305-6 0 9996
L22 65179 97.6038 224.2492 0003012 74.1444 286.0115 15.05644554 20675



Live tracking and technical data element details for STARLINK-34932 (NORAD 65179). STARLINK-34932 can be tracked NOW for your location showing map with azimuth and elevation plus other details from your city location.







IsCatalogInMostPopularTable: catalog: 65179, numindb: 5
Update: records affected: 1



GetName: 65179 STARLINK-34932

Hit Count: updated at: Sat, 11 Apr 2026 21:58:47 GMT